Погода в Голере

Австралия     34°36′05″S   138°44′58″E
темп.,
°C
ветер,
м/с
пор.,
м/с
влажн.,
%
обл.,
%
осадки,
мм/ч
давл.,
гПа
погр.,
м
11 мая, вт
вт1100:30+11ююз2773100 0.1 1022353
03:30+12ююз2663100 0.1 1023330
06:30+11ю2672100 0.1 1024320
09:30+13ю366610 0.2 1025731
12:30+15ююв465174 0.1 10241502
15:30+15ю554546 0.1 10231629
18:30+11ююв37670 0.0 1025193
21:30+9ююв22750 0.0 102634
12 мая, ср
ср1200:30+8юв22730 0.0 102511
03:30+7в11810 0.0 102410
06:30+7всв22900 0.0 102418
09:30+12всв12680 0.0 1024387
12:30+17сз12490 0.0 10211017
15:30+18з33452 0.0 10191191
18:30+11ююз12775 0.0 102118
21:30+10св2276100 0.0 102010
13 мая, чт
чт1300:30+10сз227392 0.0 101912
03:30+9сз2266100 0.0 101830
06:30+9ссз23665 0.0 101866
09:30+14зсз4867100 0.0 1018485
12:30+14юз61078100 0.2 1018892
15:30+14юз71068100 0.3 10191089
18:30+12ююз5965100 0.1 1021781
21:30+12ююз4861100 0.2 1023710
14 мая, пт
пт1400:30+11ююз2764100 0.0 1023424
03:30+12юз3858100 0.0 1022406
06:30+11зсз3464100 0.0 102389
09:30+13зюз4870100 0.0 1024896
12:30+16юз6951100 0.1 10231596
15:30+15юз5862100 0.1 10221056
18:30+13юз3772100 0.2 1023483
21:30+13юз3881100 0.8 1023393
15 мая, сб
сб1500:30+12юз410695 0.3 1023426
03:30+13юз611685 0.6 1023808
06:30+13юз51062100 0.1 1024589
09:30+13ююз6105596 0.1 10261600
12:30+15ю684311 0.0 10261625
15:30+14ю57390 0.0 10261614
18:30+10ююв35560 0.0 1028112
21:30+8юв22680 0.0 102922